Simultaneous Nadir Overpasses (SNOs) Predictions

Prediction of SNOs between METOP-B and NOAA-19 Satellite Orbit:

Table of predicted SNOs for the next 14.0 days since TLE Epoch: 9/18/2016
Index Date (METOP-B) Time (METOP-B) Lat,Lon (METOP-B) SZA (METOP-B ) Date (NOAA-19) Time (NOAA-19) Lat,Lon (NOAA-19) SZA (NOAA-19 ) Distance(km) Time Diff (sec)
1 09/19/2016 12:28:31 -76.37, 174.65 104.88 09/19/2016 12:27:18 -76.38, 174.59 104.87 2.50 73
2 09/19/2016 13:19:11 76.36, -18.03 75.13 09/19/2016 13:18:15 76.37, -18.10 75.14 2.21 56
3 09/19/2016 14:09:53 -76.35, 149.25 104.87 09/19/2016 14:09:19 -76.34, 149.24 104.88 0.78 34
4 09/19/2016 15:00:33 76.34, -43.43 75.14 09/19/2016 15:00:16 76.33, -43.45 75.13 1.64 17
5 09/19/2016 15:51:15 -76.33, 123.85 104.86 09/19/2016 15:51:20 -76.30, 123.89 104.89 3.57 5
6 09/19/2016 16:41:55 76.33, -68.83 75.15 09/19/2016 16:42:18 76.33, -68.97 75.16 3.57 23
7 09/19/2016 17:32:37 -76.32, 98.45 104.85 09/19/2016 17:33:22 -76.30, 98.37 104.86 2.31 45
8 09/19/2016 18:23:17 76.31, -94.24 75.16 09/19/2016 18:24:19 76.29, -94.32 75.14 2.99 62
9 09/19/2016 19:14:08 -75.89, 71.63 105.27 09/19/2016 19:15:15 -75.91, 74.32 105.21 72.98 67
10 09/30/2016 05:15:12 -76.40, -76.89 100.67 09/30/2016 05:14:04 -76.41, -76.94 100.67 1.70 68
11 09/30/2016 06:05:52 76.39, 90.43 79.34 09/30/2016 06:05:03 76.40, 90.36 79.34 1.95 49
12 09/30/2016 06:56:34 -76.38,-102.29 100.66 09/30/2016 06:56:05 -76.37,-102.29 100.68 1.52 29
13 09/30/2016 07:47:14 76.38, 65.03 79.35 09/30/2016 07:47:04 76.36, 65.01 79.33 2.42 10
14 09/30/2016 08:37:56 -76.36,-127.69 100.65 09/30/2016 08:38:07 -76.37,-127.81 100.65 3.23 11
15 09/30/2016 09:28:36 76.36, 39.63 79.36 09/30/2016 09:29:06 76.36, 39.49 79.36 3.57 30
16 09/30/2016 10:19:18 -76.35,-153.09 100.65 09/30/2016 10:20:08 -76.33,-153.16 100.66 2.52 50
17 09/30/2016 11:09:59 76.30, 14.06 79.32 09/30/2016 11:11:07 76.32, 14.14 79.35 3.13 68




NCC Satellite Simultaneous Nadir Overpasses (SNOs) Prediction Service
